#datint,netname,site,siteID,timestamp,IntT,BattV,AirT2,AirT,AirT_Avg,AirT_Max,AirT_Min,RH_Avg,RH_Max,RH_Min,EA_Avg,Td_Avg,Td_Max,Td_Min,WindS_Smp,WindS_Avg,WindD_Avg,WindD_SD,WindS_Max,ETo,ETr,SoilT4,SoilT8,SoilVWC8,SolarW_Avg,wetstate_Avg,wetT_Avg,Precip_accum,Precip_WPG,Precip_TB
15min,AgWx,beryljct,423,13FEB2018:00:00:00,34.2,12.83,32.6,33.3,33.3,33.5,33.1,83,83,83,0.533,28.8,29.0,28.4,8.09,7.9,35,11,11.8,0.00000,0.00001,38.0,40.3,21,0,0,35.9,12.07,0.00,0.00
15min,AgWx,beryljct,423,13FEB2018:00:15:00,34.1,12.71,32.1,32.8,32.9,33.3,32.5,83,83,82,0.519,28.1,28.7,27.7,4.757,7.4,37,11,12.0,-0.00000,0.00001,38.0,40.3,21,0,0,35.5,12.07,0.00,0.00
15min,AgWx,beryljct,423,13FEB2018:00:30:00,34.0,12.83,31.9,32.4,32.6,32.9,32.3,82,82,82,0.509,27.8,28.1,27.4,3.398,4.0,45,9.1,5.8,-0.00006,-0.00006,37.9,40.2,21,0,0,35.4,12.07,0.00,0.00
15min,AgWx,beryljct,423,13FEB2018:00:45:00,33.9,12.8,31.9,32.4,32.5,32.7,32.3,82,82,82,0.507,27.6,27.9,27.4,4.604,4.2,28,11,5.9,-0.00005,-0.00005,37.8,40.2,21,0,0,35.3,12.07,0.00,0.00
15min,AgWx,beryljct,423,13FEB2018:01:00:00,33.8,12.79,31.7,32.4,32.5,32.9,32.1,82,82,82,0.508,27.5,27.9,27.2,5.7,4.3,35,12,6.8,-0.00005,-0.00005,37.7,40.2,21,0,0,35.5,12.07,0.00,0.00
15min,AgWx,beryljct,423,13FEB2018:01:15:00,33.7,12.78,31.7,32.3,32.4,32.6,32.1,82,82,82,0.504,27.4,27.6,27.1,10.59,7.9,44,10,12.2,0.00001,0.00002,37.6,40.1,21,0,0,35.3,12.07,0.00,0.00
15min,AgWx,beryljct,423,13FEB2018:01:30:00,33.6,12.78,31.7,32.2,32.3,32.7,32.0,82,82,82,0.505,27.3,27.7,27.0,7.673,8.4,33,11,12.9,0.00001,0.00003,37.6,40.1,21,0,0,35.3,12.07,0.00,0.00
15min,AgWx,beryljct,423,13FEB2018:01:45:00,33.4,12.77,31.6,32.0,32.1,32.3,31.9,82,82,82,0.502,27.3,27.5,27.0,10,8.2,36,11,12.0,0.00001,0.00002,37.6,40.1,21,0,78,35.4,12.07,0.00,0.00
15min,AgWx,beryljct,423,13FEB2018:02:00:00,33.3,12.77,31.2,31.6,31.8,32.1,31.4,82,82,82,0.493,27.0,27.3,26.6,11.42,10.4,41,14,13.9,0.00003,0.00004,37.5,40.0,21,0,100,35.2,12.07,0.00,0.00
15min,AgWx,beryljct,423,13FEB2018:02:15:00,33.1,12.76,30.8,31.4,31.4,31.7,31.2,82,82,82,0.488,26.6,26.9,26.3,11.88,11.3,41,13,15.2,0.00004,0.00005,37.4,40.0,21,0,100,35.3,12.07,0.00,0.00
15min,AgWx,beryljct,423,13FEB2018:02:30:00,32.9,12.62,30.6,31.0,31.2,31.4,30.9,82,82,81,0.481,26.3,26.5,26.0,9.8,10.3,34,12,13.8,0.00003,0.00005,37.3,39.9,21,0,69,35.3,12.07,0.00,0.00
15min,AgWx,beryljct,423,13FEB2018:02:45:00,32.8,12.75,30.4,31.0,31.0,31.5,30.7,82,83,82,0.483,26.2,26.5,26.0,6.599,8.6,27,12,12.3,0.00001,0.00003,37.2,39.9,21,0,59,35.3,12.07,0.00,0.00
15min,AgWx,beryljct,423,13FEB2018:03:00:00,32.6,12.72,30.3,30.9,30.8,31.0,30.6,82,83,82,0.477,26.0,26.3,25.6,5.568,6.5,23,8.5,9.2,-0.00001,-0.00000,37.1,39.9,21,0,94,35.4,12.07,0.00,0.00
15min,AgWx,beryljct,423,13FEB2018:03:15:00,32.5,12.73,30.3,30.9,30.8,30.9,30.5,82,83,81,0.479,25.9,26.2,25.5,2.85,5.5,8.2,11,10.8,-0.00002,-0.00002,37.0,39.8,21,0,100,35.7,12.08,0.00,0.00
15min,AgWx,beryljct,423,13FEB2018:03:30:00,32.4,12.75,30.1,30.6,30.7,30.9,30.4,82,83,82,0.475,25.9,26.1,25.6,4.538,3.1,341,13,4.5,-0.00008,-0.00009,37.0,39.8,21,0,36,36.0,12.08,0.00,0.00
15min,AgWx,beryljct,423,13FEB2018:03:45:00,32.3,12.74,30.0,30.5,30.5,30.9,30.2,82,83,82,0.473,25.8,26.1,25.5,0.855,2.0,349,15,4.2,-0.00012,-0.00015,36.9,39.7,21,0,0,35.6,12.08,0.00,0.00
15min,AgWx,beryljct,423,13FEB2018:04:00:00,32.1,12.75,30.0,30.5,30.5,30.7,30.2,83,83,82,0.475,25.8,26.1,25.5,0.965,0.3,312,0.1,1.0,-0.00021,-0.00032,36.8,39.7,21,0,0,35.8,12.08,0.00,0.00
15min,AgWx,beryljct,423,13FEB2018:04:15:00,31.9,12.75,30.1,30.5,30.5,30.6,30.2,83,83,83,0.475,25.8,26.0,25.5,4.077,3.1,183,49,4.7,-0.00008,-0.00009,36.8,39.7,21,0,0,35.4,12.08,0.00,0.00
15min,AgWx,beryljct,423,13FEB2018:04:30:00,31.9,12.74,30.3,30.7,30.5,30.8,30.2,83,83,83,0.479,25.9,26.1,25.6,4.669,4.4,164,7.6,6.1,-0.00005,-0.00005,36.7,39.6,21,0,0,35.5,12.08,0.00,0.00
15min,AgWx,beryljct,423,13FEB2018:04:45:00,31.8,12.74,30.4,30.6,30.6,30.9,30.3,83,83,83,0.478,25.9,26.2,25.7,2.587,3.2,111,38,5.2,-0.00008,-0.00009,36.7,39.6,21,0,0,35.3,12.08,0.00,0.00
15min,AgWx,beryljct,423,13FEB2018:05:00:00,31.6,12.72,30.3,30.2,30.3,30.6,30.0,83,83,83,0.474,25.8,26.1,25.5,4.823,3.6,73,12,6.3,-0.00007,-0.00007,36.6,39.5,21,0,0,35.5,12.08,0.00,0.00
15min,AgWx,beryljct,423,13FEB2018:05:15:00,31.5,12.73,30.0,30.4,30.4,30.7,30.1,84,84,83,0.481,26.1,26.4,25.6,6.423,5.5,58,11,7.0,-0.00003,-0.00003,36.6,39.5,21,0,0,35.7,12.08,0.00,0.00
15min,AgWx,beryljct,423,13FEB2018:05:30:00,31.3,12.73,29.5,30.1,30.3,30.6,29.9,84,85,84,0.477,26.1,26.4,25.8,7.585,6.6,43,9.0,9.2,-0.00002,-0.00001,36.5,39.5,21,0,0,35.4,12.08,0.00,0.00
15min,AgWx,beryljct,423,13FEB2018:05:45:00,31.0,12.73,29.6,29.9,29.9,30.1,29.6,85,85,84,0.478,25.9,26.2,25.6,7.147,6.6,55,11,9.4,-0.00002,-0.00001,36.5,39.5,21,0,0,35.6,12.08,0.00,0.00
15min,AgWx,beryljct,423,13FEB2018:06:00:00,30.8,12.7,29.6,30.0,30.0,30.3,29.8,85,85,84,0.475,26.1,26.3,25.7,6.62,6.4,56,12,9.1,-0.00002,-0.00002,36.4,39.4,21,0,0,35.4,12.08,0.00,0.00
15min,AgWx,beryljct,423,13FEB2018:06:15:00,30.6,12.71,29.3,29.8,29.8,30.1,29.5,84,85,83,0.464,25.6,25.9,25.1,6.072,6.2,53,13,8.7,-0.00002,-0.00002,36.4,39.4,21,0,0,35.6,12.08,0.00,0.00
15min,AgWx,beryljct,423,13FEB2018:06:30:00,30.3,12.72,29.1,29.6,29.6,29.8,29.3,84,85,83,0.460,25.2,25.5,24.9,2.148,3.5,70,20,6.9,-0.00007,-0.00008,36.3,39.3,21,0,0,35.8,12.07,0.00,0.00
15min,AgWx,beryljct,423,13FEB2018:06:45:00,30.2,12.72,29.4,30.0,29.8,30.1,29.5,84,84,83,0.473,25.4,25.8,25.0,2.236,2.3,91,4.3,3.1,0.00007,0.00011,36.3,39.3,21,0,0,35.8,12.07,0.00,0.00
15min,AgWx,beryljct,423,13FEB2018:07:00:00,30.1,12.71,29.6,29.9,29.9,30.2,29.5,85,85,84,0.474,25.8,26.1,25.4,2.236,2.8,119,15,4.1,0.00007,0.00012,36.2,39.3,21,0,0,35.7,12.07,0.00,0.00
15min,AgWx,beryljct,423,13FEB2018:07:15:00,30.1,12.7,28.9,29.4,29.8,30.1,29.3,85,85,84,0.464,25.7,26.1,25.2,3.266,3.5,71,13,5.5,0.00008,0.00014,36.1,39.2,21,0,0,35.6,12.07,0.00,0.00
15min,AgWx,beryljct,423,13FEB2018:07:30:00,29.8,12.69,28.7,29.4,29.2,29.5,28.9,85,86,84,0.470,25.2,25.6,24.9,2.894,3.5,82,9.4,5.1,0.00009,0.00015,36.0,39.2,21,3,0,35.4,12.07,0.00,0.00
15min,AgWx,beryljct,423,13FEB2018:07:45:00,29.4,12.71,27.9,28.6,28.8,29.4,28.3,85,86,84,0.450,24.8,25.5,24.3,4.012,4.5,61,12,6.4,0.00015,0.00022,35.9,39.1,21,16,0,35.6,12.08,0.00,0.00
15min,AgWx,beryljct,423,13FEB2018:08:00:00,29.2,12.73,27.9,28.4,28.5,28.8,28.1,83,85,83,0.440,24.1,24.5,23.6,5.963,5.5,58,8.1,7.7,0.00024,0.00034,35.9,39.1,21,38,0,35.5,12.07,0.00,0.00
15min,AgWx,beryljct,423,13FEB2018:08:15:00,29.1,12.61,28.2,28.6,28.4,28.7,28.1,85,86,83,0.455,24.6,25.0,24.0,9.05,5.7,51,12,10.1,0.00026,0.00035,35.9,39.1,21,48,0,35.7,12.07,0.00,0.00
15min,AgWx,beryljct,423,13FEB2018:08:30:00,29.8,13.36,30.3,30.6,29.3,30.6,28.4,83,85,80,0.459,24.7,25.0,24.4,6.467,8.3,52,12,10.7,0.00051,0.00065,35.7,32.0,0,150,0,35.9,12.07,0.00,0.00
15min,AgWx,beryljct,423,13FEB2018:08:45:00,32.2,14.08,31.7,31.2,30.8,31.3,30.3,79,80,78,0.465,25.2,25.6,24.6,6.094,7.0,49,13,10.4,0.00079,0.00096,35.7,39.0,21,250,0,36.9,12.07,0.00,0.00
15min,AgWx,beryljct,423,13FEB2018:09:00:00,33.7,13.84,30.7,31.0,31.0,31.2,30.7,80,80,79,0.469,25.4,25.7,25.1,7.3,5.9,64,14,8.7,0.00070,0.00086,35.7,39.0,21,193,0,38.4,12.07,0.00,0.00
15min,AgWx,beryljct,423,13FEB2018:09:15:00,34.1,13.72,30.8,31.0,31.0,31.5,30.9,79,81,79,0.464,25.4,26.1,25.0,11.36,6.6,70,12,11.5,0.00068,0.00085,35.6,38.9,21,176,0,38.2,12.08,0.00,0.00
15min,AgWx,beryljct,423,13FEB2018:09:30:00,34.1,13.87,31.5,31.7,31.3,31.7,31.0,78,79,77,0.466,25.3,25.9,25.0,11.64,9.6,59,12,12.2,0.00076,0.00097,35.5,32.0,0,198,0,37.5,12.08,0.00,0.00
15min,AgWx,beryljct,423,13FEB2018:09:45:00,34.7,14.4,32.3,32.4,32.1,32.8,31.6,77,79,76,0.481,25.8,26.9,25.2,13.59,10.1,50,12,13.6,0.00106,0.00131,35.5,38.8,21,324,0,38.7,12.07,0.00,0.00
15min,AgWx,beryljct,423,13FEB2018:10:00:00,35.2,14.2,32.6,33.0,32.7,33.3,32.1,75,79,72,0.464,25.6,26.7,24.8,13.33,11.7,55,14,15.5,0.00094,0.00122,35.6,38.8,21,241,0,37.5,12.07,0.00,0.00
15min,AgWx,beryljct,423,13FEB2018:10:15:00,35.7,14.32,33.1,33.3,33.2,33.5,32.7,71,74,69,0.456,24.8,25.5,23.8,11.49,12.5,53,13,16.9,0.00113,0.00148,35.5,38.8,21,297,0,37.8,12.07,0.00,0.00
15min,AgWx,beryljct,423,13FEB2018:10:30:00,36.6,14.8,34.8,35.0,34.0,35.2,33.0,70,74,66,0.464,25.1,26.8,23.9,12.01,11.6,55,15,16.1,0.00147,0.00184,35.8,38.8,21,433,0,39.4,12.07,0.00,0.00
15min,AgWx,beryljct,423,13FEB2018:10:45:00,38.5,14.72,35.3,35.4,35.3,36.0,34.6,68,71,66,0.482,25.9,27.3,24.3,13.2,14.4,40,14,18.4,0.00172,0.00218,35.9,38.7,21,522,0,40.4,12.07,0.00,0.00
15min,AgWx,beryljct,423,13FEB2018:11:00:00,40.4,14.67,37.1,37.4,36.3,37.6,35.2,67,72,63,0.523,26.5,29.3,25.0,12.17,12.2,38,12,15.8,0.00190,0.00235,36.1,38.7,21,558,0,41.8,12.07,0.00,0.00
15min,AgWx,beryljct,423,13FEB2018:11:15:00,42.2,14.64,37.3,37.5,36.8,37.7,35.9,66,69,62,0.515,26.4,28.0,24.1,10.06,13.3,43,14,17.4,0.00206,0.00256,36.3,38.7,21,612,0,43.8,12.07,0.00,0.00
15min,AgWx,beryljct,423,13FEB2018:11:30:00,43.7,14.63,36.8,36.6,37.4,38.0,36.5,65,69,62,0.474,26.8,28.7,25.3,11.97,11.9,44,16,16.1,0.00192,0.00240,36.8,38.7,21,521,0,43.4,12.07,0.00,0.00
15min,AgWx,beryljct,423,13FEB2018:11:45:00,44.5,14.61,39.4,39.4,37.5,39.4,36.6,64,67,60,0.546,26.3,29.3,24.7,8.31,11.3,43,16,15.5,0.00207,0.00257,37.2,38.6,21,572,0,43.7,12.07,0.00,0.00
15min,AgWx,beryljct,423,13FEB2018:12:00:00,45.4,14.62,39.3,39.2,38.6,39.9,37.5,62,66,59,0.499,26.6,29.4,25.2,9.8,10.8,43,17,16.4,0.00218,0.00270,37.7,38.6,21,575,0,45.4,12.07,0.00,0.00
15min,AgWx,beryljct,423,13FEB2018:12:15:00,46.3,14.55,39.4,39.7,38.9,40.0,38.0,60,63,57,0.499,26.1,27.7,24.8,9.93,9.4,33,14,14.3,0.00228,0.00279,38.1,38.6,21,585,0,46.9,12.07,0.00,0.00
15min,AgWx,beryljct,423,13FEB2018:12:30:00,47.3,14.14,39.5,39.7,39.8,41.2,39.0,58,63,56,0.472,26.2,29.0,25.1,8.26,9.9,43,18,16.2,0.00260,0.00317,38.6,38.6,21,677,0,47.6,12.07,0.00,0.00
15min,AgWx,beryljct,423,13FEB2018:12:45:00,48.1,14.12,40.5,40.6,40.5,41.7,39.4,57,60,55,0.489,26.5,27.9,25.2,6.248,8.7,35,17,13.9,0.00267,0.00323,39.0,38.6,21,676,0,48.0,12.07,0.00,0.00
15min,AgWx,beryljct,423,13FEB2018:13:00:00,49.2,14.1,41.0,41.0,41.3,42.5,40.3,56,60,53,0.471,26.7,28.8,24.9,4.319,8.2,46,19,13.7,0.00256,0.00312,39.6,38.6,21,622,0,48.4,12.07,0.00,0.00
15min,AgWx,beryljct,423,13FEB2018:13:15:00,50.0,14.09,40.8,41.0,41.2,42.2,40.6,55,57,53,0.465,26.2,27.5,25.1,5.371,6.9,38,31,11.3,0.00231,0.00282,40.2,32.0,0,541,0,49.5,12.07,0.00,0.00
15min,AgWx,beryljct,423,13FEB2018:13:30:00,50.8,14.06,42.4,42.1,42.0,42.7,41.1,54,56,52,0.477,26.5,27.4,25.2,8.24,7.2,45,19,10.8,0.00231,0.00284,40.7,38.6,21,526,0,50.2,12.07,0.00,0.00
15min,AgWx,beryljct,423,13FEB2018:13:45:00,51.5,14.05,42.3,42.6,42.8,43.8,42.1,52,54,50,0.480,26.5,27.6,25.7,4.647,5.7,56,28,9.7,0.00270,0.00321,41.2,38.7,21,624,0,52.1,12.07,0.00,0.00
15min,AgWx,beryljct,423,13FEB2018:14:00:00,52.9,14.03,44.3,44.5,43.6,44.6,42.3,51,54,48,0.492,26.5,27.4,25.3,2.521,4.4,75,58,8.8,0.00300,0.00348,41.8,38.7,21,679,0,55.9,12.07,0.00,0.00
15min,AgWx,beryljct,423,13FEB2018:14:15:00,54.9,13.96,43.4,43.7,44.3,45.5,43.3,49,51,47,0.475,26.3,27.7,25.0,2.631,5.4,116,25,11.7,0.00279,0.00332,42.4,38.8,21,618,0,58.8,12.07,0.00,0.00
15min,AgWx,beryljct,423,13FEB2018:14:30:00,55.8,13.96,44.2,44.3,44.3,45.2,43.6,48,50,46,0.470,25.6,27.1,24.8,3.266,3.9,187,41,8.6,0.00227,0.00270,42.9,32.0,0,502,0,56.3,12.07,0.00,0.00
15min,AgWx,beryljct,423,13FEB2018:14:45:00,56.4,13.97,44.0,44.4,44.5,45.6,43.9,46,48,44,0.461,25.3,26.5,24.7,4.626,3.1,158,47,8.1,0.00191,0.00227,43.5,38.9,21,431,0,59.2,12.07,0.00,0.00
15min,AgWx,beryljct,423,13FEB2018:15:00:00,55.5,14,44.0,44.4,44.0,44.6,43.4,47,48,46,0.453,25.1,25.7,24.6,2.543,2.6,107,74,6.8,0.00120,0.00149,44.0,39.0,21,239,0,52.7,12.07,0.00,0.00
15min,AgWx,beryljct,423,13FEB2018:15:15:00,54.4,14.01,44.9,44.7,44.3,45.0,43.6,46,48,45,0.466,25.0,26.2,24.3,3.529,3.8,47,30,7.7,0.00140,0.00178,44.5,39.1,21,309,0,52.1,12.07,0.00,0.00
15min,AgWx,beryljct,423,13FEB2018:15:30:00,55.1,13.96,45.4,45.3,45.9,46.9,45.1,44,47,43,0.466,25.4,26.5,24.4,2.324,3.6,111,49,8.9,0.00245,0.00290,44.8,39.2,21,524,0,58.0,12.07,0.00,0.00
15min,AgWx,beryljct,423,13FEB2018:15:45:00,55.3,14,44.9,45.1,45.3,46.3,44.6,46,47,45,0.466,25.6,26.8,24.8,2.653,4.9,78,36,9.7,0.00158,0.00205,45.1,39.4,21,335,0,55.4,12.07,0.00,0.00
15min,AgWx,beryljct,423,13FEB2018:16:00:00,54.4,14.04,45.5,45.8,45.2,46.1,44.6,46,48,44,0.474,25.7,26.5,25.1,4.691,6.0,86,31,14.6,0.00121,0.00172,45.3,39.5,21,246,0,52.9,12.07,0.00,0.00
15min,AgWx,beryljct,423,13FEB2018:16:15:00,53.8,14.02,45.6,45.7,45.8,46.6,45.5,45,49,44,0.508,25.9,27.5,25.2,5.744,4.1,146,47,9.2,0.00126,0.00167,45.5,39.5,21,281,0,54.1,12.07,0.00,0.00
15min,AgWx,beryljct,423,13FEB2018:16:30:00,53.0,14.05,44.7,44.7,45.0,46.1,44.4,49,52,47,0.513,27.2,28.1,26.2,6.927,6.0,84,18,10.4,0.00112,0.00159,45.8,39.8,21,230,0,50.7,12.07,0.00,0.00
15min,AgWx,beryljct,423,13FEB2018:16:45:00,51.5,14.02,43.6,43.6,44.2,44.7,43.6,52,53,50,0.512,27.6,27.9,27.1,8.92,6.2,62,15,9.0,0.00070,0.00113,45.8,39.9,21,140,0,47.0,12.07,0.00,0.00
15min,AgWx,beryljct,423,13FEB2018:17:00:00,49.8,14.11,43.4,43.5,43.4,43.6,43.0,55,56,53,0.540,28.1,29.1,27.4,5.765,6.3,57,12,9.3,0.00046,0.00086,45.9,40.0,21,93,0,44.4,12.07,0.00,0.00
15min,AgWx,beryljct,423,13FEB2018:17:15:00,48.5,13.6,43.3,43.3,43.6,44.2,43.2,55,56,54,0.528,28.6,29.2,28.1,4.297,6.5,57,13,8.5,0.00040,0.00049,45.7,40.2,21,112,0,45.0,12.07,0.00,0.00
15min,AgWx,beryljct,423,13FEB2018:17:30:00,47.4,13.42,42.8,42.9,43.2,43.4,42.9,56,57,55,0.531,28.5,28.9,27.9,5.02,6.0,62,11,7.8,0.00031,0.00039,45.7,40.3,21,61,0,44.1,12.07,0.00,0.00
15min,AgWx,beryljct,423,13FEB2018:17:45:00,46.5,13.25,42.7,43.0,43.0,43.2,42.7,56,57,56,0.532,28.5,28.9,28.1,5.919,5.7,54,11,8.3,0.00027,0.00035,45.4,40.5,21,44,0,43.7,12.07,0.00,0.00
15min,AgWx,beryljct,423,13FEB2018:18:00:00,45.5,13.14,41.8,42.1,42.5,43.4,41.9,57,58,56,0.527,28.4,29.0,28.1,4.121,4.5,63,6.9,6.2,0.00019,0.00026,45.2,40.6,21,20,0,42.4,12.07,0.00,0.00
15min,AgWx,beryljct,423,13FEB2018:18:15:00,44.4,13.07,40.8,41.1,41.5,42.1,41.0,59,60,58,0.525,28.3,28.5,28.1,3.091,3.1,78,4.1,4.1,0.00010,0.00015,45.0,40.7,21,6,0,40.5,12.07,0.00,0.00
15min,AgWx,beryljct,423,13FEB2018:18:30:00,43.2,13.04,39.6,40.0,40.5,41.1,39.9,61,63,60,0.527,28.3,28.4,27.9,3.508,3.2,76,8.8,3.8,0.00008,0.00012,44.7,40.8,21,1,0,39.7,12.07,0.00,0.00
15min,AgWx,beryljct,423,13FEB2018:18:45:00,41.9,13.02,39.4,39.8,39.5,40.1,38.8,63,64,62,0.525,27.9,28.4,27.3,2.258,3.0,70,7.1,3.9,0.00006,0.00010,44.4,41.0,21,0,0,38.3,12.07,0.00,0.00
15min,AgWx,beryljct,423,13FEB2018:19:00:00,40.9,13,37.3,37.8,38.8,39.8,37.8,66,69,63,0.531,28.4,28.7,28.0,0,1.2,99,19,2.5,-0.00004,-0.00005,44.0,41.0,21,0,0,37.8,12.07,0.00,0.00
15min,AgWx,beryljct,423,13FEB2018:19:15:00,40.0,12.99,38.6,39.0,38.6,39.3,37.6,67,69,66,0.534,28.8,28.9,28.4,1.776,0.2,207,2.5,1.8,-0.00013,-0.00020,43.8,41.1,21,0,0,36.2,12.07,0.00,0.00
15min,AgWx,beryljct,423,13FEB2018:19:30:00,39.1,12.98,36.5,36.9,37.4,38.9,36.6,72,74,66,0.543,29.2,29.7,28.4,1.732,2.0,214,9.8,3.4,-0.00002,-0.00001,43.4,41.3,21,0,0,36.3,12.07,0.00,0.00
15min,AgWx,beryljct,423,13FEB2018:19:45:00,38.4,12.97,36.1,36.4,36.7,36.9,36.3,73,75,73,0.546,29.0,29.3,28.7,0,0.8,232,0.2,2.0,-0.00008,-0.00011,43.1,41.3,21,0,0,36.4,12.07,0.00,0.00
15min,AgWx,beryljct,423,13FEB2018:20:00:00,37.7,12.95,35.7,36.1,36.4,36.9,35.9,75,76,74,0.541,29.3,29.8,28.9,0,0.0,226,0.1,1.1,-0.00013,-0.00020,42.8,41.4,21,0,0,35.6,12.07,0.00,0.00
15min,AgWx,beryljct,423,13FEB2018:20:15:00,36.9,12.96,34.9,35.1,35.7,36.3,34.9,77,80,75,0.553,29.2,29.6,28.8,1.644,0.9,207,18,2.0,-0.00008,-0.00011,42.5,41.5,21,0,0,35.6,12.07,0.00,0.00
15min,AgWx,beryljct,423,13FEB2018:20:30:00,36.1,12.82,34.6,35.0,35.2,35.6,34.9,79,80,78,0.548,29.4,29.8,29.1,0.417,0.9,271,32,1.6,-0.00008,-0.00011,42.1,41.5,21,0,0,35.4,12.07,0.00,0.00
15min,AgWx,beryljct,423,13FEB2018:20:45:00,35.1,12.93,32.7,33.2,34.0,35.0,33.2,80,81,79,0.521,28.5,29.3,28.0,0,0.1,295,0.1,0.8,-0.00012,-0.00018,41.9,41.6,21,0,0,35.5,12.07,0.00,0.00
15min,AgWx,beryljct,423,13FEB2018:21:00:00,34.5,12.93,32.6,32.9,32.9,33.5,32.2,82,84,80,0.508,28.1,29.0,27.5,1.841,2.3,153,28,5.2,-0.00003,-0.00003,41.5,41.6,21,0,0,35.5,12.07,0.00,0.00
15min,AgWx,beryljct,423,13FEB2018:21:15:00,34.2,12.92,32.9,33.2,32.7,33.2,32.2,82,83,80,0.531,27.8,28.6,26.9,1.337,1.7,209,6.5,2.4,-0.00005,-0.00006,41.2,41.6,21,0,0,35.7,12.07,0.00,0.00
15min,AgWx,beryljct,423,13FEB2018:21:30:00,33.9,12.78,31.2,31.6,32.6,33.5,31.6,83,85,82,0.508,28.1,28.8,27.5,0,0.5,165,17,1.3,-0.00009,-0.00013,41.0,41.6,21,0,0,35.4,12.07,0.00,0.00
15min,AgWx,beryljct,423,13FEB2018:21:45:00,33.5,12.9,32.1,32.4,31.7,32.5,31.0,84,85,83,0.513,27.5,28.0,26.9,2.718,1.7,59,23,3.0,-0.00005,-0.00006,40.8,41.6,21,0,0,36.0,12.07,0.00,0.00
15min,AgWx,beryljct,423,13FEB2018:22:00:00,33.4,12.9,32.2,32.7,32.1,32.7,31.4,84,84,81,0.528,27.6,28.5,26.8,0,1.7,42,11,3.6,-0.00005,-0.00006,40.5,41.6,21,0,0,35.6,12.07,0.00,0.00
15min,AgWx,beryljct,423,13FEB2018:22:15:00,33.6,12.89,32.7,32.9,32.5,32.9,32.2,84,84,84,0.534,28.3,28.7,28.0,1.381,0.6,315,1.5,1.9,-0.00009,-0.00013,40.4,41.6,21,0,0,35.5,12.07,0.00,0.00
15min,AgWx,beryljct,423,13FEB2018:22:30:00,33.9,12.9,34.8,35.0,33.7,35.0,32.8,84,84,84,0.579,29.4,30.7,28.6,1.688,2.5,305,10,3.8,-0.00003,-0.00003,40.1,41.6,21,0,0,36.0,12.07,0.00,0.00
15min,AgWx,beryljct,423,13FEB2018:22:45:00,34.4,12.9,34.3,34.5,35.0,35.9,34.2,83,84,82,0.559,30.5,31.4,29.3,3.244,2.9,164,83,8.5,-0.00002,-0.00002,39.9,41.6,21,0,0,36.1,12.07,0.00,0.00
15min,AgWx,beryljct,423,13FEB2018:23:00:00,34.7,12.89,34.1,34.5,34.5,34.7,34.2,83,84,82,0.563,29.9,30.3,29.4,2.017,2.0,90,18,3.5,-0.00004,-0.00005,39.9,41.5,21,0,0,35.3,12.07,0.00,0.00
15min,AgWx,beryljct,423,13FEB2018:23:15:00,34.8,12.88,33.8,34.0,34.1,34.5,33.8,84,84,83,0.556,29.7,29.9,29.5,2.192,3.2,84,22,4.5,-0.00001,-0.00001,39.7,41.5,21,0,0,35.6,12.08,0.00,0.00
15min,AgWx,beryljct,423,13FEB2018:23:30:00,34.9,12.88,34.0,34.2,34.0,34.2,33.7,84,84,84,0.560,29.7,29.9,29.4,0.943,2.1,175,49,3.4,-0.00004,-0.00005,39.7,41.5,21,0,0,35.6,12.07,0.00,0.00
15min,AgWx,beryljct,423,13FEB2018:23:45:00,35.1,12.88,35.0,35.3,34.8,35.4,34.0,84,84,83,0.581,30.4,30.8,29.7,0.636,1.1,210,9.0,2.0,-0.00007,-0.00010,39.5,41.4,21,0,0,35.9,12.07,0.00,0.00
15min,AgWx,bigpiney,439,13FEB2018:00:00:00,12.5,12.83,11.2,11.6,12.9,13.2,11.6,82,84,81,0.212,8.6,9.1,7.2,2.324,1.9,294,16,2.7,-0.00008,-0.00010,30.5,31.4,12,0,0,0.0,.,0.00,0.00
15min,AgWx,bigpiney,439,13FEB2018:00:15:00,12.3,12.81,11.4,11.3,12.0,13.0,9.4,84,88,79,0.208,8.2,9.4,4.2,3.661,1.8,209,32,4.9,-0.00008,-0.00010,30.4,31.4,12,0,0,0.0,.,0.00,0.00
15min,AgWx,bigpiney,439,13FEB2018:00:30:00,12.0,12.81,9.1,9.0,9.5,11.2,8.9,83,85,81,0.188,5.3,6.6,4.4,2.631,4.1,213,11,6.0,-0.00003,-0.00003,30.4,31.4,12,0,0,0.0,.,0.00,0.00
15min,AgWx,bigpiney,439,13FEB2018:00:45:00,11.4,12.8,7.3,6.5,7.0,9.0,5.6,83,86,81,0.175,2.9,4.7,1.4,3.793,2.7,203,9.0,4.2,-0.00005,-0.00005,30.3,31.4,12,0,0,0.0,.,0.00,0.00
15min,AgWx,bigpiney,439,13FEB2018:01:00:00,10.6,12.8,10.6,9.0,7.4,9.0,6.6,86,88,85,0.203,4.1,6.2,3.2,1.578,2.2,257,33,3.6,-0.00006,-0.00007,30.3,31.4,12,0,0,0.0,.,0.00,0.00
15min,AgWx,bigpiney,439,13FEB2018:01:15:00,10.0,12.78,7.9,7.6,10.1,11.3,7.4,86,89,81,0.182,6.7,8.4,2.7,0.855,0.9,54,72,2.0,-0.00010,-0.00014,30.3,31.4,12,0,0,0.0,.,0.00,0.00
15min,AgWx,bigpiney,439,13FEB2018:01:30:00,9.5,12.78,4.5,4.4,5.5,7.6,4.4,84,86,83,0.158,1.8,4.1,0.4,2.718,2.7,183,8.6,5.1,-0.00005,-0.00005,30.2,31.4,12,0,0,0.0,.,0.00,0.00
15min,AgWx,bigpiney,439,13FEB2018:01:45:00,8.9,12.76,4.3,4.9,4.6,5.1,3.9,85,86,84,0.161,1.0,1.7,0.1,4.012,4.2,214,4.9,4.9,-0.00003,-0.00003,30.2,31.5,12,0,0,0.0,.,0.00,0.00
15min,AgWx,bigpiney,439,13FEB2018:02:00:00,8.2,12.75,4.5,4.0,4.0,4.7,3.4,83,85,82,0.152,0.0,1.1,-0.8,3.573,3.9,227,15,6.1,-0.00003,-0.00003,30.1,31.4,12,0,0,0.0,.,0.00,0.00
15min,AgWx,bigpiney,439,13FEB2018:02:15:00,7.8,12.74,8.7,7.8,5.5,7.8,2.9,86,90,80,0.191,2.3,5.0,-1.8,1.622,2.3,297,18,4.0,-0.00006,-0.00007,30.1,31.4,12,0,0,0.0,.,0.00,0.00
15min,AgWx,bigpiney,439,13FEB2018:02:30:00,7.5,12.72,4.8,3.7,5.8,7.9,3.6,85,88,80,0.150,2.1,5.0,-1.0,3.705,3.2,235,23,5.0,-0.00004,-0.00005,30.0,31.4,12,0,0,0.0,.,0.00,0.00
15min,AgWx,bigpiney,439,13FEB2018:02:45:00,7.1,12.72,6.9,5.9,4.9,5.9,3.7,85,86,84,0.170,1.4,2.4,-0.0,5.152,4.1,223,6.1,5.2,-0.00003,-0.00003,30.0,31.3,12,0,0,0.0,.,0.00,0.00
15min,AgWx,bigpiney,439,13FEB2018:03:00:00,7.0,12.71,5.1,4.8,5.4,6.0,4.8,84,86,83,0.157,1.5,2.6,0.7,3.727,4.7,228,6.8,6.1,-0.00002,-0.00002,30.0,31.4,12,0,0,0.0,.,0.00,0.00
15min,AgWx,bigpiney,439,13FEB2018:03:15:00,7.0,12.69,3.3,5.2,4.9,6.0,4.1,83,86,82,0.161,0.9,2.6,-0.3,2.916,3.3,234,13,4.3,-0.00004,-0.00004,29.9,31.3,12,0,0,0.0,.,0.00,0.00
15min,AgWx,bigpiney,439,13FEB2018:03:30:00,7.0,12.68,11.2,10.7,8.1,10.8,3.7,85,87,80,0.208,4.4,7.3,-1.1,3.793,3.4,280,22,4.0,-0.00004,-0.00005,29.8,31.4,12,0,0,0.0,.,0.00,0.00
15min,AgWx,bigpiney,439,13FEB2018:03:45:00,7.3,12.67,5.2,6.0,9.1,11.0,6.0,81,84,78,0.162,4.5,6.9,1.4,3.683,3.0,238,35,5.1,-0.00004,-0.00005,29.8,31.4,12,0,0,0.0,.,0.00,0.00
15min,AgWx,bigpiney,439,13FEB2018:04:00:00,7.5,12.67,4.8,4.4,5.4,6.6,4.3,81,83,80,0.151,0.9,2.5,-0.2,3.31,5.0,206,6.4,6.3,-0.00002,-0.00001,29.7,31.3,12,0,0,0.0,.,0.00,0.00
15min,AgWx,bigpiney,439,13FEB2018:04:15:00,7.3,12.66,5.6,5.3,4.5,5.3,3.7,82,84,81,0.163,0.3,1.5,-0.8,3.223,4.0,209,8.9,4.8,-0.00003,-0.00003,29.7,31.3,12,0,0,0.0,.,0.00,0.00
15min,AgWx,bigpiney,439,13FEB2018:04:30:00,7.1,12.65,7.9,7.6,6.1,8.6,4.7,84,88,82,0.178,2.4,5.7,0.4,2.872,2.8,293,28,4.1,-0.00005,-0.00005,29.6,31.3,12,0,0,0.0,.,0.00,0.00
15min,AgWx,bigpiney,439,13FEB2018:04:45:00,7.0,12.64,7.0,7.1,7.0,7.9,5.4,83,85,78,0.178,3.0,4.0,0.2,1.556,2.0,292,33,3.3,-0.00006,-0.00008,29.6,31.3,12,0,0,0.0,.,0.00,0.00
15min,AgWx,bigpiney,439,13FEB2018:05:00:00,6.8,12.62,7.4,6.7,6.9,7.3,6.6,84,85,83,0.173,3.1,3.6,2.6,1.513,0.7,287,28,2.0,-0.00010,-0.00014,29.5,31.3,12,0,0,0.0,.,0.00,0.00
15min,AgWx,bigpiney,439,13FEB2018:05:15:00,6.7,12.62,6.8,5.7,7.3,8.0,5.6,85,86,80,0.159,3.7,4.6,0.8,0,0.8,204,15,2.6,-0.00010,-0.00013,29.5,31.4,12,0,0,0.0,.,0.00,0.00
15min,AgWx,bigpiney,439,13FEB2018:05:30:00,6.5,12.61,7.7,6.7,6.5,7.9,4.7,85,87,81,0.171,2.8,4.7,0.5,1.973,1.4,218,7.0,2.7,-0.00008,-0.00010,29.4,31.4,12,0,0,0.0,.,0.00,0.00
15min,AgWx,bigpiney,439,13FEB2018:05:45:00,6.3,12.59,6.8,6.9,6.8,7.2,5.7,84,86,82,0.177,3.1,3.7,1.3,0,1.1,263,31,2.3,-0.00008,-0.00011,29.4,31.4,12,0,0,0.0,.,0.00,0.00
15min,AgWx,bigpiney,439,13FEB2018:06:00:00,5.7,12.59,2.1,2.5,5.3,6.8,2.5,84,86,81,0.138,1.5,3.2,-2.1,1.403,0.8,188,7.9,2.7,-0.00009,-0.00012,29.3,31.4,12,0,0,0.0,.,0.00,0.00
15min,AgWx,bigpiney,439,13FEB2018:06:15:00,5.0,12.58,5.2,4.5,2.8,4.8,0.9,84,88,81,0.159,-1.0,2.0,-3.7,0,0.7,233,21,2.0,-0.00008,-0.00012,29.3,31.4,12,0,0,0.0,.,0.00,0.00
15min,AgWx,bigpiney,439,13FEB2018:06:30:00,4.4,12.58,6.2,5.3,4.5,5.3,3.3,85,86,81,0.167,0.9,2.1,-1.1,0,0.4,131,24,1.6,-0.00010,-0.00015,29.2,31.3,12,0,0,0.0,.,0.00,0.00
15min,AgWx,bigpiney,439,13FEB2018:06:45:00,4.0,12.57,6.1,5.3,5.7,6.3,5.3,85,86,85,0.165,2.2,3.0,1.7,0,0.6,77,6.5,1.4,-0.00010,-0.00014,29.2,31.3,12,0,0,0.0,.,0.00,0.00
15min,AgWx,bigpiney,439,13FEB2018:07:00:00,3.9,12.57,6.5,6.3,6.0,6.4,5.3,85,86,85,0.172,2.5,2.9,1.8,1.162,0.7,154,25,1.6,-0.00010,-0.00014,29.1,31.4,12,0,0,0.0,.,0.00,0.00
15min,AgWx,bigpiney,439,13FEB2018:07:15:00,4.1,12.57,4.4,5.1,6.0,6.5,5.1,85,86,84,0.163,2.5,2.9,1.5,3.814,2.9,202,9.3,4.0,-0.00005,-0.00005,29.1,31.3,12,2,0,0.0,.,0.00,0.00
15min,AgWx,bigpiney,439,13FEB2018:07:30:00,4.1,12.8,2.6,1.9,3.0,5.0,1.8,84,85,82,0.138,-0.9,1.4,-2.0,4.472,3.8,219,3.7,4.7,-0.00002,-0.00002,29.0,31.4,12,12,0,0.0,.,0.00,0.00
15min,AgWx,bigpiney,439,13FEB2018:07:45:00,3.9,15.02,2.7,2.1,1.7,2.6,1.2,83,84,82,0.138,-2.3,-1.1,-3.0,3.398,4.1,248,6.5,5.1,-0.00004,-0.00001,29.0,31.3,12,42,0,0.0,.,0.00,0.00
15min,AgWx,bigpiney,439,13FEB2018:08:00:00,4.1,15.05,6.0,5.3,4.0,5.3,2.0,83,85,83,0.161,0.1,1.2,-2.1,1.622,3.1,241,8.2,4.3,0.00001,0.00004,28.9,31.2,12,80,0,0.0,.,0.00,0.00